Wenatchee, WA

12:47 AM PDT on August 21, 2017 (GMT -0700)
Pangborn Memorial

Weather History for KEAT - October, 2012

Change the Weather History Date:

Tuesday, October 2, 2012

  Actual Average Record
Temperature  
Mean Temperature 60 °F 51 °F  
Max Temperature 73 °F 65 °F 83 °F (1988)
Min Temperature 46 °F 37 °F 31 °F (2014)
Degree Days  
Heating Degree Days 5 14  
Month to date heating degree days 6 27  
Since 1 July heating degree days 36 383  
Cooling Degree Days 0 0  
Month to date cooling degree days 0 0  
Year to date cooling degree days 888 249  
Growing Degree Days 14 (Base 50)    
Moisture  
Dew Point 26 °F    
Average Humidity 29    
Maximum Humidity 48    
Minimum Humidity 10    
Precipitation  
Precipitation 0.00 in 0.03 in 0.47 in (1967)
Month to date precipitation 0.00 0.05  
Year to date precipitation 5.42 11.10  
Snow  
Snow 0.00 in 0.00 in - ()
Month to date snowfall 0.0  
Since 1 July snowfall 0.0  
Since 1 September snowfall 0.0  
Snow Depth -    
Sea Level Pressure  
Sea Level Pressure 30.01 in    
Wind  
Wind Speed 13 mph (NW)    
Max Wind Speed 29 mph    
Max Gust Speed 38 mph    
Visibility 10 miles    
Events      
T = Trace of Precipitation, MM = Missing Value Source: NWS Daily Summary

Daily Weather History Graph

Daily Weather History Graph

Search for Another Location

Airport or City:

Trip Planner

Search our weather history database for the weather conditions in past years. The results will help you decide how hot, cold, wet, or windy it might be!

Date:

Astronomy

Oct. 02, 2012 Rise Set
Actual Time 7:01 AM PDT 6:37 PM PDT
Civil Twilight 6:31 AM PDT 7:07 PM PDT
Nautical Twilight 5:55 AM PDT 7:43 PM PDT
Astronomical Twilight 5:19 AM PDT 8:19 PM PDT
Moon 7:38 PM PDT (10/2) 9:47 AM PDT (10/2)
Length of Visible Light 12h 36m
Length of Day
11h 35m
Waning Gibbous, 93% of the Moon is Illuminated
Oct 2
Waning Gibbous
Oct 8
Last Quarter
Oct 15
New
Oct 21
First Quarter
Oct 29
Full

Hourly Weather History & Observations

Time (PDT) Temp. Dew Point Humidity Pressure Visibility Wind Dir Wind Speed Gust Speed Precip Events Conditions
12:55 AM 66.9 °F 46.9 °F 49% 29.91 in 10.0 mi NW 12.7 mph - N/A   Clear
1:55 AM 66.9 °F 41.0 °F 39% 29.93 in 10.0 mi NW 12.7 mph - N/A   Clear
2:55 AM 66.0 °F 37.9 °F 36% 29.93 in 10.0 mi WNW 19.6 mph - N/A   Clear
3:55 AM 64.0 °F 36.0 °F 35% 29.94 in 10.0 mi Variable 3.5 mph 24.2 mph N/A   Clear
4:55 AM 63.0 °F 30.9 °F 30% 29.95 in 10.0 mi SSE 4.6 mph - N/A   Clear
5:36 AM 60.8 °F 30.2 °F 31% 29.97 in 10.0 mi Variable 3.5 mph - N/A   Squalls
5:55 AM 61.0 °F 30.9 °F 32% 29.96 in 10.0 mi NE 5.8 mph - N/A   Clear
6:55 AM 60.1 °F 33.1 °F 36% 29.98 in 10.0 mi NW 11.5 mph 19.6 mph N/A   Clear
7:55 AM 60.1 °F 33.1 °F 36% 29.99 in 10.0 mi WNW 10.4 mph - N/A   Clear
8:55 AM 63.0 °F 33.1 °F 33% 29.99 in 10.0 mi North 3.5 mph - 0.00 in   Clear
9:55 AM 64.0 °F 30.9 °F 29% 29.98 in 10.0 mi WNW 12.7 mph 21.9 mph N/A   Clear
10:55 AM 66.9 °F 28.0 °F 23% 29.96 in 10.0 mi WNW 24.2 mph 29.9 mph N/A   Clear
11:55 AM 70.0 °F 21.0 °F 16% 29.93 in 10.0 mi WNW 24.2 mph 32.2 mph N/A   Clear
12:55 PM 72.0 °F 18.0 °F 13% 29.92 in 10.0 mi WNW 24.2 mph - N/A   Clear
1:55 PM 73.0 °F 18.0 °F 12% 29.91 in 10.0 mi NW 24.2 mph 31.1 mph N/A   Clear
2:55 PM 71.1 °F 17.1 °F 13% 29.92 in 10.0 mi NW 24.2 mph 32.2 mph N/A   Clear
5:55 PM 61.0 °F 18.0 °F 19% 30.02 in 10.0 mi NNE 23.0 mph 32.2 mph N/A   Clear
6:55 PM 57.0 °F 15.1 °F 19% 30.07 in 10.0 mi NNE 23.0 mph 33.4 mph N/A   Clear
7:55 PM 57.0 °F 15.1 °F 19% 30.14 in 10.0 mi Variable 3.5 mph - N/A   Clear
8:55 PM 54.0 °F 14.0 °F 21% 30.16 in 10.0 mi Variable 3.5 mph - N/A   Clear
9:55 PM 54.0 °F 14.0 °F 21% 30.20 in 10.0 mi Variable 3.5 mph - N/A   Clear
10:55 PM 54.0 °F 15.1 °F 22% 30.24 in 10.0 mi NW 6.9 mph - N/A   Clear
11:55 PM 48.9 °F 17.1 °F 28% 30.27 in 10.0 mi Calm Calm - N/A   Clear